{"data":{"norad_id":41924,"epoch":"2026-05-25T05:17:46.466016Z","epoch_age_seconds":53302,"freshness":"FRESH","line1":"1 41924U 17003H   26145.22067669  .00000002  00000+0 -61838-5 0  9990","line2":"2 41924  86.3966  66.3618 0002034  85.0416 275.1012 14.34217515491817","mean_motion":14.34217515,"eccentricity":0.0002034,"inclination_deg":86.3966,"raan_deg":66.3618,"arg_perigee_deg":85.0416,"mean_anomaly_deg":275.1012,"bstar":-6.1838e-6,"rev_number":49181,"period_min":100.40318047573,"perigee_km":776.21244529333,"apogee_km":779.1234267413,"semimajor_km":7155.8049360173,"source":"CELESTRAK","updated_at":"2026-05-25T13:38:14.764684Z"}}